This is the latest recevied weather packets stored in our database for station/object KLEMETTI. If no packets are shown the sender has not sent any weather packets the latest 1 day(s).
| Time | Temp. | Humidity | Pressure | Rain* | Wind** | Luminosity | Snow |
|---|---|---|---|---|---|---|---|
| 1778114847 | 0.56° C | 82% | 1014.8 hPa | 0 mm | - | - | - |
| 1778112447 | 0.56° C | 82% | 1014.6 hPa | 0 mm | - | - | - |
| 1778110047 | 1.67° C | 81% | 1014.5 hPa | 0 mm | - | - | - |
| 1778104047 | 1.67° C | 81% | 1014.2 hPa | 0 mm | - | - | - |
| 1778102847 | 2.22° C | 78% | 1014 hPa | 0 mm | - | - | - |
| 1778101647 | 2.78° C | 74% | 1013.9 hPa | 0 mm | - | - | - |
| 1778098047 | 4.44° C | 62% | 1013.6 hPa | 0 mm | - | - | - |
| 1778087246 | 7.22° C | 51% | 1012.6 hPa | 0 mm | - | - | - |
| 1778082446 | 7.78° C | 47% | 1012.3 hPa | 0 mm | - | - | - |
| 1778081246 | 8.33° C | 47% | 1012.3 hPa | 0 mm | - | - | - |
| 1778080045 | 8.33° C | 47% | 1012.2 hPa | 0 mm | - | - | - |
| 1778077645 | 8.33° C | 48% | 1012.3 hPa | 0 mm | - | - | - |
| 1778075245 | 8.33° C | 47% | 1012.1 hPa | 0 mm | - | - | - |
| 1778074045 | 8.89° C | 46% | 1012 hPa | 0 mm | - | - | - |
| 1778069245 | 8.33° C | 48% | 1011.8 hPa | 0 mm | - | - | - |
| 1778068045 | 7.78° C | 46% | 1011.6 hPa | 0 mm | - | - | - |
| 1778066845 | 7.78° C | 51% | 1011.6 hPa | 0 mm | - | - | - |
| 1778063246 | 6.11° C | 54% | 1011 hPa | 0 mm | - | - | - |
| 1778062047 | 6.11° C | 56% | 1010.9 hPa | 0 mm | - | - | - |
| 1778060847 | 6.11° C | 57% | 1010.6 hPa | 0 mm | - | - | - |
| 1778058446 | 6.11° C | 59% | 1010.3 hPa | 0 mm | - | - | - |
| 1778057247 | 6.11° C | 58% | 1010.1 hPa | 0 mm | - | - | - |
| 1778056047 | 6.11° C | 59% | 1009.9 hPa | 0 mm | - | - | - |
| 1778054846 | 5.56° C | 59% | 1009.7 hPa | 0 mm | - | - | - |
| 1778052447 | 5° C | 61% | 1009.3 hPa | 0 mm | - | - | - |
* Rain latest hour (hover to see other rain measurements)
** Current wind speed in m/s (hover to see current wind gust speed)